| time (UTC) | temp F | wind direction | speed knots | gust knots | rain 1hr in | rain 24hr in | rain mn in | humidity % | barometer mb |
| 20260504044601 | 55 | 0 | 0.0 | 0.0 | 0.00 | 0.00 | 0.00 | 59 | 1017.7 |
| 20260504043055 | 55 | 0 | 0.0 | 0.0 | 0.00 | 0.00 | 0.00 | 60 | 1017.8 |
| 20260504041553 | 55 | 0 | 0.0 | 0.0 | 0.00 | 0.00 | 0.00 | 60 | 1018.0 |
| 20260504040107 | 55 | 0 | 0.0 | 0.0 | 0.00 | 0.00 | 0.00 | 61 | 1018.0 |
| 20260504034610 | 56 | 0 | 0.0 | 0.0 | 0.00 | 0.00 | 0.00 | 61 | 1017.9 |
| 20260504033054 | 56 | 0 | 0.0 | 0.0 | 0.00 | 0.00 | 0.00 | 62 | 1017.8 |
| 20260504031552 | 56 | 0 | 0.0 | 0.0 | 0.00 | 0.00 | 0.00 | 61 | 1017.9 |
| 20260504030119 | 57 | 349 | 0.0 | 0.9 | 0.00 | 0.00 | 0.00 | 60 | 1017.9 |
| 20260504024555 | 57 | 0 | 0.0 | 1.7 | 0.00 | 0.00 | 0.00 | 60 | 1017.6 |
| 20260504023051 | 58 | 0 | 0.0 | 0.0 | 0.00 | 0.00 | 0.00 | 59 | 1017.5 |
| 20260504021554 | 59 | 0 | 0.0 | 1.7 | 0.00 | 0.00 | 0.00 | 57 | 1017.5 |
| 20260504020100 | 59 | 0 | 0.0 | 1.7 | 0.00 | 0.00 | 0.00 | 57 | 1017.6 |
| 20260504014555 | 60 | 0 | 0.0 | 0.9 | 0.00 | 0.00 | 0.00 | 56 | 1017.5 |
| 20260504013053 | 61 | 0 | 0.0 | 1.7 | 0.00 | 0.00 | 0.00 | 55 | 1017.4 |
| 20260504011550 | 61 | 0 | 0.0 | 1.7 | 0.00 | 0.00 | 0.00 | 54 | 1017.1 |
| 20260504010051 | 62 | 0 | 0.0 | 0.9 | 0.00 | 0.00 | 0.00 | 51 | 1017.0 |
| 20260504004551 | 63 | 56 | 0.0 | 0.9 | 0.00 | 0.00 | 0.00 | 49 | 1016.9 |
| 20260504003048 | 63 | 0 | 0.0 | 0.9 | 0.00 | 0.00 | 0.00 | 48 | 1016.8 |
| 20260504001604 | 64 | 0 | 0.0 | 1.7 | 0.00 | 0.00 | 0.00 | 47 | 1016.8 |
| 20260504000057 | 64 | 0 | 0.0 | 1.7 | 0.00 | 0.00 | 0.00 | 47 | 1016.9 |
| 20260503234550 | 65 | 0 | 0.0 | 1.7 | 0.00 | 0.00 | 0.00 | 47 | 1017.0 |
| 20260503233049 | 65 | 360 | 0.0 | 1.7 | 0.00 | 0.00 | 0.00 | 48 | 1017.0 |
| 20260503231556 | 65 | 0 | 0.0 | 2.6 | 0.00 | 0.00 | 0.00 | 48 | 1017.1 |
| 20260503230052 | 66 | 0 | 0.0 | 1.7 | 0.00 | 0.00 | 0.00 | 47 | 1017.2 |
| 20260503224547 | 66 | 80 | 0.9 | 2.6 | 0.00 | 0.00 | 0.00 | 48 | 1017.3 |
| 20260503223051 | 67 | 0 | 0.0 | 2.6 | 0.00 | 0.00 | 0.00 | 47 | 1017.4 |
| 20260503221550 | 67 | 87 | 0.0 | 2.6 | 0.00 | 0.00 | 0.00 | 45 | 1017.3 |
| 20260503220053 | 67 | 314 | 0.9 | 2.6 | 0.00 | 0.00 | 0.00 | 44 | 1017.3 |
| 20260503214601 | 67 | 102 | 0.0 | 2.6 | 0.00 | 0.00 | 0.00 | 44 | 1017.3 |
| 20260503213053 | 67 | 113 | 0.0 | 5.2 | 0.00 | 0.00 | 0.00 | 44 | 1017.6 |
| 20260503211557 | 67 | 286 | 0.0 | 2.6 | 0.00 | 0.00 | 0.00 | 44 | 1017.9 |
| 20260503210054 | 68 | 325 | 0.9 | 3.5 | 0.00 | 0.00 | 0.00 | 45 | 1018.1 |
| 20260503204602 | 68 | 342 | 0.9 | 3.5 | 0.00 | 0.00 | 0.00 | 45 | 1018.4 |
| 20260503203054 | 68 | 127 | 0.9 | 2.6 | 0.00 | 0.00 | 0.00 | 41 | 1018.4 |
| 20260503201552 | 68 | 289 | 0.9 | 3.5 | 0.00 | 0.00 | 0.00 | 41 | 1018.7 |
| 20260503200055 | 69 | 268 | 0.9 | 2.6 | 0.00 | 0.00 | 0.00 | 41 | 1018.9 |
| 20260503194553 | 69 | 67 | 0.9 | 3.5 | 0.00 | 0.00 | 0.00 | 37 | 1018.9 |
| 20260503193107 | 69 | 0 | 0.9 | 3.5 | 0.00 | 0.00 | 0.00 | 44 | 1019.3 |
| 20260503191553 | 69 | 302 | 0.9 | 2.6 | 0.00 | 0.00 | 0.00 | 45 | 1019.5 |
| 20260503190105 | 68 | 340 | 0.9 | 3.5 | 0.00 | 0.00 | 0.00 | 42 | 1019.6 |
| 20260503184548 | 68 | 37 | 0.9 | 3.5 | 0.00 | 0.00 | 0.00 | 45 | 1019.8 |
| 20260503183102 | 67 | 111 | 1.7 | 5.2 | 0.00 | 0.00 | 0.00 | 45 | 1019.9 |
| 20260503181552 | 65 | 298 | 1.7 | 4.3 | 0.00 | 0.00 | 0.00 | 53 | 1020.1 |
| 20260503180058 | 65 | 254 | 0.9 | 4.3 | 0.00 | 0.00 | 0.00 | 48 | 1020.3 |
| 20260503174557 | 64 | 5 | 0.9 | 6.1 | 0.00 | 0.00 | 0.00 | 52 | 1020.5 |
| 20260503173110 | 63 | 311 | 1.7 | 7.0 | 0.00 | 0.00 | 0.00 | 56 | 1020.9 |
| 20260503171555 | 62 | 117 | 1.7 | 7.8 | 0.00 | 0.00 | 0.00 | 52 | 1021.0 |
| 20260503140104 | 56 | 328 | 2.6 | 5.2 | 0.00 | 0.00 | 0.00 | 67 | 1022.0 |
| 20260503100106 | 47 | 319 | 0.9 | 2.6 | 0.00 | 0.00 | 0.00 | 80 | 1020.1 |
| 20260503081550 | 47 | 0 | 0.0 | 1.7 | 0.00 | 0.00 | 0.00 | 82 | 1019.2 |
| 20260503071600 | 49 | 296 | 0.9 | 2.6 | 0.00 | 0.00 | 0.00 | 80 | 1018.8 |
| 20260503054549 | 51 | 300 | 0.9 | 3.5 | 0.00 | 0.00 | 0.00 | 74 | 1018.7 |